Regional Weather Roundup
Issued by NWS Grand Forks, ND

Home | Current Version | Previous Version | Graphics & Text | Print | Product List | Glossary On
Versions: 1 2 3 4 5 6 7 8 9 10 11 12 13 14 15 16 17 18 19 20 21 22 23 24 25 26 27 28 29 30 31 32 33 34 35 36 37 38 39 40 41 42 43 44 45 46 47 48 49 50
000
ASUS43 KFGF 110131
RWRFGF
PRAIRIE TO PINES  WEATHER ROUNDUP
NATIONAL WEATHER SERVICE EASTERN NORTH DAKOTA/GRAND FORKS ND
800 PM CDT THU JUL 10 2014

 **SATELLITE DATA USED TO AUGMENT SKY COVER AT AUTOMATED STATIONS**
 *****  WEATHER ACROSS EASTERN NORTH DAKOTA  *****

CITY           SKY/WX    TMP DP  RH WIND       PRES   REMARKS
GRAND FORKS    CLOUDY    79  63  57 SE10      29.80S
GRAND FRKS AFB PTSUNNY   78  66  65 SE9       29.80F
GRAND FRKS NWS   N/A     77 N/A N/A SE14        N/A
DEVILS LAKE    SUNNY     75  63  64 S12       29.78F
FARGO          CLOUDY    70  68  93 E5        29.85S
WAHPETON ARPT  CLOUDY    73  63  68 S8        29.86R
$$

 ***** WEATHER ACROSS CENTRAL AND WESTERN NORTH DAKOTA  *****

CITY           SKY/WX    TMP DP  RH WIND       PRES   REMARKS
BISMARCK       SUNNY     77  67  71 S9        29.79F
MINOT          SUNNY     79  64  60 S12G22    29.74S
JAMESTOWN      PTSUNNY   73  65  75 S10       29.81F
MINOT AFB      SUNNY     79  68  69 S9        29.73S
GARRISON         N/A     78  66  66 S7        29.77S
WILLISTON      SUNNY     84  66  54 N23G32    29.72R
DICKINSON      SUNNY     80  67  64 SE9       29.78S
HETTINGER      SUNNY     81  66  60 SE7       29.82R
$$

 *****  OTHER AIRPORT OBSERVATIONS IN OUR AREA  *****

CITY           SKY/WX    TMP DP  RH WIND       PRES   REMARKS
WALHALLA       FAIR      75  63  64 S6          N/A
GRAFTON AIRPOR FAIR      77  64  65 SE10      29.78F
VALLEY CITY AR MOCLDY    72  72 100 S7        29.82F
CANDO          FAIR      73  64  73 S9        29.80S
CAVALIER APRT  FAIR      77  64  65 S9        29.78S
GWINNER        MOCLDY    73  72  94 SE7       29.84F
SHEYENNE NWR     N/A     72  69  91 NE3       29.95
ROLLA          FAIR      73  66  78 S15       29.78F
 ***** THE ABOVE OBSERVATIONS ARE NON NWS ARE NOT QUALITY
       CONTROLLED AND MAY MIS-REPORT RAIN FOR SNOW...
$$

  *****  WEATHER ACROSS NORTHERN MINNESOTA  *****

CITY           SKY/WX    TMP DP  RH WIND       PRES   REMARKS
FLAG ISLAND    CLOUDY    72  63  73 S9        29.85F
WARROAD        CLOUDY    73  63  68 SE8       29.86F
ROSEAU         CLOUDY    73  63  68 S10       29.85S
HALLOCK        PTSUNNY   77  63  61 SE10      29.79F
THF RVR FALLS  PTSUNNY   75  63  64 SE10      29.84F
BAUDETTE       CLOUDY    73  58  59 S7        29.89F
WASKISH        CLOUDY    73  61  64 SE3       29.90F
CROOKSTON      CLOUDY    75  64  69 S8        29.83R
$$
  *****  WEATHER ACROSS CENTRAL AND WEST MINNESOTA  *****

CITY           SKY/WX    TMP DP  RH WIND       PRES   REMARKS
FOSSTON        CLOUDY    73  63  68 SE7       29.87S
BEMIDJI        PTSUNNY   75  62  64 SE9       29.89F
PARK RAPIDS    CLOUDY    76  63  64 SE12      29.90F
ELBOW LAKE     CLOUDY    72  68  88 S5        29.89R
WADENA         DRIZZLE   73  64  73 S6        29.89F
DETROIT LAKES  LGT RAIN  70  66  88 SE6       29.91S
MOORHEAD       CLOUDY    72  72 100 E5        29.86S
FERGUS FALLS   CLOUDY    73  64  73 SE8       29.87R
MORRIS MN      CLOUDY    75  66  73 S13       29.87S
STAPLES        CLOUDY    75  63  64 SE7       29.90F
$$
  *****  WEATHER ELSEWHERE ACROSS MINNESOTA  *****

CITY           SKY/WX    TMP DP  RH WIND       PRES   REMARKS
DULUTH         MOCLDY    66  54  65 SE12      29.99F
INTRNTL FALLS  MOCLDY    72  57  59 VRB3      29.92S
ELY            PTCLDY    72  52  49 S5        29.97S
CLOQUET        CLOUDY    66  55  68 E3        29.98S
WHEATON        CLOUDY    73  64  73 SE8       29.87S
BRAINERD       CLOUDY    81  63  54 SE8       29.94S
HIBBING        CLOUDY    75  61  61 S3        29.96F
ALEXANDRIA     CLOUDY    77  63  61 SE13      29.91F
SAINT CLOUD    CLOUDY    78  62  57 SE7       29.94S
MINNEAPOLIS    CLOUDY    81  59  47 S13       29.98R
$$

  *****  WEATHER ACROSS SOUTH DAKOTA  *****

CITY           SKY/WX    TMP DP  RH WIND       PRES   REMARKS
SIOUX FALLS    CLOUDY    80  64  58 S17G28    29.89F
BROOKINGS      NOT AVBL
WATERTOWN      CLOUDY    75  66  73 S12       29.88R
HURON          CLOUDY    79  67  66 S13G20    29.79F
SISSETON         N/A     73  67  81 S9        29.84S
ABERDEEN       MOSUNNY   79  67  66 S13       29.80F
MITCHELL       PTSUNNY   83  68  60 S12G23    29.85R
PIERRE         PTSUNNY   81  71  71 NE5       29.74R
MOBRIDGE       MOSUNNY   79  67  66 S5        29.78S
RAPID CITY     PTSUNNY   79  62  56 SW7       29.87R
$$

  *****  SOME WEATHER IN NEARBY STATES *****

CITY           SKY/WX    TMP DP  RH WIND       PRES   REMARKS
GLASGOW MT     SUNNY     84  57  39 NE13      29.79R
GREAT FALLS MT SUNNY     89  37  16 W10       29.81R
CHEYENNE WY    PTSUNNY   82  46  28 S5        30.05R
SCOTTSBLUFF NE CLOUDY    75  61  61 NW7       29.93R
OMAHA NE       PTCLDY    81  65  58 SE24G30   29.96F
DES MOINES IA  MOCLDY    78  59  51 S12       30.04S
DAVENPORT IA   PTCLDY    72  60  66 S6        30.11S
CHICAGO IL     PTCLDY    72  48  42 E9        30.15R
EAU CLAIRE WI  MOCLDY    77  64  64 S7        30.02S
LA CROSSE WI   PTCLDY    80  62  54 S9        30.05R HAZE
$$

  *****  SOME NATIONAL WEATHER *****

CITY           SKY/WX    TMP DP  RH WIND       PRES   REMARKS
LA GUARDIA NY  CLOUDY    76  61  59 VRB3      30.11R
RALEIGH NC     LGT RAIN  71  68  90 SW5       30.10R
ATLANTA GA     MOCLDY    80  71  74 SW5       30.08R
NEW ORLEANS LA MOCLDY    83  73  72 S5        30.06R
OKLAHOMA CITY  PTCLDY    82  72  71 SE18G25   29.96R
ALBUQUERQUE NM PTSUNNY   79  51  37 SW10      30.07S
SALT LAKE CITY PTSUNNY   90  51  26 E5        29.89F
LOS ANGELES CA MOSUNNY   71  60  68 W14       29.90F
BOISE ID       PTSUNNY   93  45  19 S3        29.80F
SEATTLE WA     MOSUNNY   84  49  29 N9        29.90F
$$

*** WEATHER ACROSS MANITOBA...SASKATCHEWAN AND ONTARIO ***
                ***ONTARIO***

CITY           SKY/WX    TMP DP  RH WIND       PRES   REMARKS
GERALDTON      MOCLDY    66  48  52 SW14      30.01R
THUNDER BAY    PTCLDY    70  50  49 CALM      30.01S
SIOUX LOOKOUT  PTCLDY    73  52  46 SW7       29.91S
TORONTO        PTCLDY    64  48  55 SE5       30.17S
BIG TROUT LK   SUNNY     72  54  53 SE5       29.78F
PICKLE LAKE    PTCLDY    75  48  38 SW10      29.87F
DRYDEN         SUNNY     73  52  46 SW9       29.90F
KENORA         PTSUNNY   72  59  64 S9        29.89S
$$
                *** MANITOBA***

CITY           SKY/WX    TMP DP  RH WIND       PRES   REMARKS
BRANDON        PTSUNNY   75  64  69 S12       29.73S
DAUPHIN        SUNNY     73  66  78 SW18G29   29.66S
ISLAND LAKE    CLOUDY    75  59  57 S7        29.66F
PILOT MOUND      N/A     72  63  73 S14         N/A
THE PAS        MOSUNNY   77  46  33 W17G24    29.59R
THOMPSON       MOSUNNY  N/A N/A N/A S7          N/A
WINNIPEG       PTSUNNY   77  61  57 S18       29.78R
LYNN LAKE      CLOUDY    57  54  88 W5        29.50F
CHURCHILL      LGT RAIN  52  48  87 E18       29.72F
GILLAM         LGT RAIN  66  64  94 SE8       29.60
$$
                ***SASKATCHEWAN***

CITY           SKY/WX    TMP DP  RH WIND       PRES   REMARKS
ESTEVAN        PTSUNNY   79  66  65 N17       29.75R
KINDERSLEY     MOSUNNY   73  48  40 NW10      29.86R
LLOYDMINSTER   PTSUNNY   55  48  76 NW18G33   29.84R
PRINCE ALBERT  MOSUNNY   63  54  72 NW8       29.73R
REGINA         SUNNY     73  59  60 NW14      29.80R
YORKTON        SUNNY     73  57  56 NW10G18   29.76R
N. BATTLEFORD  PTSUNNY   68  48  49 W13G21    29.82R
LA RONGE       PTSUNNY   70  45  40 W17G25    29.62R
SASKATOON      MOSUNNY   73  50  43 W12G21    29.81S
SWIFT CURRENT  MOSUNNY   72  55  56 MISG      29.86R
$$
NOTE: THESE ARE AUTOMATED STATIONS WITH LIMITED QUALITY CONTROL
      "FAIR" INDICATES FEW OR NO CLOUDS BELOW 12,000 FEET WITH NO
      SIGNIFICANT WEATHER AND/OR OBSTRUCTIONS TO VISIBILITY.
      SKY/WX - SKY CONDITION AND SIGNIFICANT WEATHER.
      TMP - AIR TEMPERATURE.    DP   - DEWPOINT TEMPERATURE.
      RH  - RELATIVE HUMIDITY.  PRES - PRESSURE.
      HX  - HEAT INDEX.         WCI  - WIND CHILL INDEX.
$


USA.gov is the U.S. government's official web portal to all federal, state and local government web resources and services.